Terminal Aerodrome Forecast
Issued by NWS

Home | Current Version | Previous Version | Graphics & Text | Print | Product List | Glossary On
Versions: 1 2 3 4 5 6 7 8 9 10 11 12 13 14 15 16 17 18 19 20 21 22 23 24 25 26
000
FTUS43 KABR 260404 AAB
TAFATY
TAF AMD
KATY 260404Z 2604/2624 11006KT 3/4SM BR OVC002
     FM260900 05005KT 1/2SM FG OVC003
     FM261700 04005KT P6SM BKN008
     FM261900 03004KT P6SM BKN015=

USA.gov is the U.S. government's official web portal to all federal, state and local government web resources and services.